Registrering Status Plassering
LN-FAW Operativ Kjeller 

Søk
Kontakt informasjon

Follo flyklubb.
Postboks 226, N-1401 Ski
Epost: post@follo-flyklubb.no

Tel: 47 25 54 90
Du er her: Hovedside

Velkommen til Follo flyklubb

 

Follo flyklubb er en flyklubb med primærbase på Ski flyplass, og sekundærbase (vinterbase) på Rakkestad flyplass. Disse websidene er ment som en informasjonskanal til flyklubbens medlemmer, og andre som måtte være interessert i Follo flyklubbs virksomhet. Har du kommentarer eller bidrag du ønsker å dele med flyklubben, send oss en melding her.

Har noen av flyklubbens medlemmer forslag til turer, aktiviteter eller kurs- og infokvelder dere ønsker at vi deltar på eller avholder, så gi beskjed til styret via epost.

 

Før flyturen: Ta en sjekk på datoer i sertifikatene dine. Husk at det er forskjell på gyldighetsdato for PPL-sertifikatet og klasserettighet, som f.eks. SEP. Her er noen nyttige spørsmål, og litt om rettigheter her.

ENGM 140620Z 00000KT 6000 2000SE BCFG FEW002 OVC004 02/02 Q1018 TEMPO 4000 BCFG SCT002 BKN005
ENTO 140620Z 00000KT 0100 R18/0600N R36/0650N FG VV002 03/03 Q1019
ENRY 140620Z AUTO 14003KT 110V180 0150NDV R12/0750 R30/0800 FG OVC001/// 03/03 Q1019
ENSN 090850Z 20010G22KT 150V240 CAVOK 07/03 Q1000
ENCN 140620Z 00000KT 9999 BKN021 04/04 Q1020
ENZV 140620Z 15008KT 9999 FEW012 BKN017 09/08 Q1018 NOSIG
ENFL 140620Z 16019KT 9999 SCT035 BKN050 10/05 Q1013
ENFG 220850Z 19007KT CAVOK 06/M03 Q1014
ENNO 140550Z VRB02KT 9999 OVC005 04/03 Q1019
 

Leie av LN-FAW

Follo flyklubbs medlemmer har anledning til å leie LN-FAW, booking skjer via MyWebLog. Husk å loggføre turen etter turen.